{"data":{"norad_id":59634,"epoch":"2026-09-21T22:03:58.409856Z","epoch_age_seconds":45442,"freshness":"FRESH","line1":"1 59634U 24082D   26264.91942604  .00000889  00000+0  41836-4 0  9998","line2":"2 59634  43.0018 111.5261 0001384 269.8357  90.2336 15.27582084134865","mean_motion":15.27582084,"eccentricity":0.0001384,"inclination_deg":43.0018,"raan_deg":111.5261,"arg_perigee_deg":269.8357,"mean_anomaly_deg":90.2336,"bstar":4.1836e-5,"rev_number":13486,"period_min":94.266620110478,"perigee_km":482.09326850899,"apogee_km":483.99244309308,"semimajor_km":6861.179855801,"source":"CELESTRAK","updated_at":"2026-09-22T09:00:49.017353Z"}}